{"data":{"norad_id":68762,"epoch":"2026-09-19T22:12:38.626848Z","epoch_age_seconds":109266,"freshness":"FRESH","line1":"1 68762U 26083H   26262.92544707  .00001719  00000+0  11785-3 0  9996","line2":"2 68762  97.8677  43.0236 0014230  89.4696 270.8161 15.07360694 23477","mean_motion":15.07360694,"eccentricity":0.001423,"inclination_deg":97.8677,"raan_deg":43.0236,"arg_perigee_deg":89.4696,"mean_anomaly_deg":270.8161,"bstar":0.00011785,"rev_number":2347,"period_min":95.531215967875,"perigee_km":534.41814974824,"apogee_km":554.11931646466,"semimajor_km":6922.4057331065,"source":"CELESTRAK","updated_at":"2026-09-20T09:00:24.452960Z"}}